Location: Newark
(39.5667°N, 8.9833°E)
Time: 02:03:28
(UTC+00:00)

deb Explorer IX - Visible Passes

Search period start: 22 October 2019 00:00
Search period end: 01 November 2019 00:00
Orbit: 545 x 1106 km, 38.8° (Epoch: 20 October)

Date Brightness Start Highest point End Pass type
(mag) Time Alt. Az. Time Alt. Az. Time Alt. Az.
22 Oct ? 17:48:01 10° W 17:53:06 23° SW 17:58:31 10° SSE visible
23 Oct ? 17:26:12 10° W 17:31:06 22° SW 17:36:20 10° SSE visible
24 Oct ? 17:04:25 10° W 17:09:06 21° SW 17:14:08 10° SSE visible
